Weather in Klintsovka

Russia / Saratov Oblast     51°40′23″N   49°11′53″E
temp.,
°C
wind,
m/s
gust,
m/s
humid.,
%
clouds,
%
prec.,
mm/h
press.,
hPa
HPBL,
m
18 august, thu
thu1801:00+24ene41132100 0.0 1017311
04:00+23ene5935100 0.1 1017237
07:00+23ene91637100 0.0 1017554
10:00+28e81032100 0.0 1017725
13:00+29e7831100 0.0 10171172
16:00+27ese6832100 0.0 1017742
19:00+26e61034100 0.0 1017461
22:00+25e81332100 0.0 1018709
19 august, fri
fri1901:00+23e51241100 0.0 1019584
04:00+21e51044100 0.1 1021605
07:00+19ene61143100 0.0 1022425
10:00+22e8103999 0.0 1024872
13:00+26ese91029100 0.0 10241840
16:00+27ese91026100 0.0 10242269
19:00+25ese71027100 0.0 1026895
22:00+20e61324100 0.0 1027350
20 august, sat
sat2001:00+18e41129100 0.0 1028257
04:00+17e41033100 0.0 1029216
07:00+16e4936100 0.0 1030249
10:00+22ese5624100 0.0 1030736
13:00+26e5518100 0.0 10291636
16:00+27e451794 0.0 10281874
19:00+24ese222379 0.0 102719
22:00+20ene222972 0.0 102711
21 august, sun
sun2101:00+18ene334052 0.0 102720
04:00+17ne33465 0.0 102720
07:00+18ene35484 0.0 1027132
10:00+26e45380 0.0 1027959
13:00+30ene66310 0.0 10252511
16:00+31ene462517 0.0 10233037
19:00+29ne5929100 0.0 1023404
22:00+23ene34400 0.0 102356
22 august, mon
mon2201:00+22e354829 0.0 102478
04:00+21ene365564 0.0 1024120
07:00+21ene37582 0.0 1025190
10:00+27ene56415 0.0 10251057
13:00+30e553453 0.0 10242559
16:00+29e553362 0.0 10231926
19:00+28e69305 0.0 1023496
22:00+23e513315 0.0 1025303